Regional Weather Roundup
Issued by NWS

Home | Current Version | Previous Version | Graphics & Text | Print | Product List | Glossary On
Versions: 1 2 3 4 5 6 7 8 9 10 11 12 13 14 15 16 17 18 19 20 21 22 23 24 25 26 27 28 29 30 31 32 33 34 35 36 37 38 39 40 41 42 43 44 45 46 47 48 49 50
699
ASUS43 KMKX 271621
RWRWI

WISCONSIN REGIONAL WEATHER ROUNDUP
NATIONAL WEATHER SERVICE MILWAUKEE/SULLIVAN WI
1100 AM CDT MON MAR 27 2017

NOTE: "FAIR" INDICATES FEW OR NO CLOUDS BELOW 12,000 FEET WITH NO
SIGNIFICANT WEATHER AND/OR OBSTRUCTIONS TO VISIBILITY.

WIZ001-002-006>008-014>016-023>028-271700-
NORTHWEST WISCONSIN

CITY           SKY/WX    TMP DP  RH WIND       PRES   REMARKS
SUPERIOR ARPT  CLOUDY    39  36  87 CALM      29.99F
ASHLAND        CLOUDY    39  34  82 NW5       29.99R
HAYWARD        CLOUDY    42  34  73 NE3       29.96S
SIREN          SUNNY     44  36  73 NE6       29.98S
CUMBERLAND     CLOUDY    39  36  87 N6        29.96S WCI  35
RICE LAKE      CLOUDY    40  36  88 CALM      29.98S
CHETEK         CLOUDY    39  37  91 N5        29.97R
LADYSMITH      CLOUDY    38  37  93 NW7       29.97S WCI  33
EAU CLAIRE     CLOUDY    39  34  82 N5        29.96R
MENOMONIE      CLOUDY    40  36  84 NW7       29.97R
NEW RICHMOND   CLOUDY    44  38  81 N7        29.98R
OSCEOLA        MOSUNNY   44  38  81 N3        30.00S
$$

WIZ003>005-009-010-017-018-271700-
NORTH CENTRAL WISCONSIN

CITY           SKY/WX    TMP DP  RH WIND       PRES   REMARKS
MANITOWISH WTR CLOUDY    36  36 100 N5        29.94R WCI  32
ARBOR VITAE    CLOUDY    37  35  93 NE5       29.93R WCI  33
WOODRUFF       CLOUDY    37  35  93 NE5       29.93R WCI  33
RHINELANDER    CLOUDY    39  36  89 N5        29.93R
EAGLE RIVER    CLOUDY    36  35  94 N5        29.92S WCI  32
LAND O LAKES   CLOUDY    35  34  95 N5        29.94F WCI  31
PHILLIPS       CLOUDY    37  35  93 N3        29.93S
TOMAHAWK       CLOUDY    36  34  92 CALM      29.94R
MEDFORD        CLOUDY    36  33  90 CALM      29.93R
MERRILL        CLOUDY    37  35  95 CALM      29.94R
$$

WIZ029-030-035-036-043>047-271700-
CENTRAL WISCONSIN

CITY           SKY/WX    TMP DP  RH WIND       PRES   REMARKS
WAUSAU         CLOUDY    39  35  86 CALM      29.92R
MOSINEE        CLOUDY    37  37 100 NE5       29.93R WCI  34
MARSHFIELD     CLOUDY    39  35  86 CALM      29.93R
STEVENS POINT  CLOUDY    38  37  97 CALM      29.94R
WAUPACA        CLOUDY    44  39  83 CALM      29.95R
WAUTOMA        CLOUDY    42  39  89 SE3       29.94F
WISC RAPIDS    CLOUDY    42  40  92 SW3       29.95R
CAMP DOUGLAS   CLOUDY    43  41  93 CALM      29.94R
$$

WIZ011>013-019>022-031-037>040-048>050-271700-
NORTHEAST WISCONSIN

CITY           SKY/WX    TMP DP  RH WIND       PRES   REMARKS
ANTIGO         CLOUDY    36  35  96 NE5       29.93R WCI  32
SHAWANO        CLOUDY    42  37  82 E3        29.95S
OCONTO         CLOUDY    39  35  83 NE3       29.96R
STURGEON BAY   CLOUDY    38  35  89 N6        29.93R WCI  33
GREEN BAY      CLOUDY    41  37  86 NE7       29.96R
MANITOWOC      CLOUDY    40  36  86 NE3       29.96S
APPLETON       CLOUDY    39  39 100 VRB5      29.93R
CLINTONVILLE   CLOUDY    41  37  87 E5        29.94S
OSHKOSH        CLOUDY    41  38  89 E5        29.94S
$$

WIZ032>034-041-042-053>061-271700-
SOUTHWEST WISCONSIN

CITY           SKY/WX    TMP DP  RH WIND       PRES   REMARKS
LA CROSSE      FOG       43  42  97 W6        29.96R VSB 1
SPARTA         CLOUDY    41  39  95 CALM      29.96R
VIROQUA        CLOUDY    41  41 100 N3        29.94R
BOSCOBEL       CLOUDY    46  41  82 CALM      29.95R
PRAIRIE DU CHI CLOUDY    43  42  95 CALM      29.94R FOG
PLATTEVILLE    CLOUDY    46  45  97 NE9       29.93F
$$

WIZ056-057-062-063-064-067-068-271700-
SOUTH CENTRAL WISCONSIN

CITY           SKY/WX    TMP DP  RH WIND       PRES   REMARKS
REEDSBURG      CLOUDY    43  43 100 N3        29.93F
BARABOO/DELLS  CLOUDY    42  40  92 CALM      29.93F
LONE ROCK      CLOUDY    46  40  79 SE3       29.94S
MINERAL POINT  CLOUDY    45  45 100 CALM      29.93S
MADISON        CLOUDY    44  40  85 NE3       29.93F
MIDDLETON      CLOUDY    45  43  92 NE3       29.94S
WATERTOWN      CLOUDY    42  42  97 CALM      29.94S
MONROE         CLOUDY    45  41  87 E5        29.93S
JANESVILLE     CLOUDY    48  43  81 E6        29.93F
$$

WIZ051-052-058>065-066-070>072-271700-
SOUTHEAST WISCONSIN

CITY           SKY/WX    TMP DP  RH WIND       PRES   REMARKS
MILWAUKEE      CLOUDY    44  41  89 E5        29.96S FOG
WAUKESHA       CLOUDY    41  39  93 CALM      29.96S FOG
MILWAUKEE/TIMM CLOUDY    43  37  81 CALM      29.96F
RACINE         CLOUDY    44  39  82 NE9       29.96F
KENOSHA        CLOUDY    46  41  82 N5        29.95S
FOND DU LAC    CLOUDY    43  37  79 CALM      29.95S
SHEBOYGAN      CLOUDY    41  36  82 NW3       29.96R
WEST BEND      CLOUDY    43  41  93 CALM      29.95S
JUNEAU         CLOUDY    41  39  93 CALM      29.95F
$$

LSZ147-162-271700-
LAKE SUPERIOR

STATION/POSITION TIME  TEMP    WIND        PRES    WAVE
                       AIR SEA DIR/SP/G            HT/PER
                 (UTC) (F)     (DEG/KT/KT) (MB)    (FT/S)
DEVILS ISLAND    1600   33     240/ 10/ 12 1016.4R
PORT WING        1540   36     290/  4/  7 1016.3R
SAXON HARBOR     1540   34     360/  5/  6 1015.6R
$$

LMZ867-665-643>646-271700-
LAKE MICHIGAN

STATION/POSITION TIME  TEMP    WIND        PRES    WAVE
                       AIR SEA DIR/SP/G            HT/PER
                 (UTC) (F)     (DEG/KT/KT) (MB)    (FT/S)
CHAMBERS ISLAND  1540   39     340/  2/  3 1013.9R
NORTHPORT PIER   1540   35     290/  6/  8 1014.2R
KEWAUNEE LAKESHO 1554   37      CALM  /  2 1014.1R
SHEBOYGAN LAKESH 1600   39      70/  3/  4 1014.8R
PORT WASHINGTON  1530   40     100/  2/  3 1015.6S
MILWAUKEE LAKESH 1600   40     110/  5/  5   N/A
KENOSHA   LAKESH 1600   40      40/ 10/ 11 1014.6
$$

TC  - TEMPERATURE IN CELSIUS
VSB - VISIBILITY IN STATUTE MILES
WCI - WIND CHILL INDEX
HX  - HEAT INDEX





USA.gov is the U.S. government's official web portal to all federal, state and local government web resources and services.